Welcome to the New NWS' Forecast!
Most changes are behind the scenes, but click here for differences you might notice.

Regional Weather Roundup (RWR)

Issued by Burlington, VT (BTV)

                            
000
ASUS41 KBTV 200010
RWRBTV
VERMONT REGIONAL WEATHER ROUNDUP
NATIONAL WEATHER SERVICE BURLINGTON VT
700 PM EST MON NOV 19 2018

NOTE: "FAIR" INDICATES FEW OR NO CLOUDS BELOW 12,000 FEET WITH NO 
SIGNIFICANT WEATHER AND/OR OBSTRUCTIONS TO VISIBILITY.

* THESE REPORTS ARE NOT UNDER NWS QUALITY CONTROL AND/OR DO NOT
  REPORT WEATHER SUCH AS PRECIPITATION AND FOG.

VTZ001>019-200100-
_____VERMONT_____

  
CITY           SKY/WX    TMP DP  RH WIND       PRES   REMARKS
BURLINGTON     MOCLDY    32  26  78 E3        30.01S                  
6HR MIN TEMP:  32; 6HR MAX TEMP:  42;                                

MONTPELIER     MOCLDY    31  31 100 CALM      30.03S                  
6HR MIN TEMP:  31; 6HR MAX TEMP:  39;                                

MORRISVILLE    FAIR      30  29  96 CALM      30.02S                  
6HR MIN TEMP:  30; 6HR MAX TEMP:  38;                                

ST. JOHNSBURY*   N/A     33  32  96 MISG      30.00R                  
6HR MIN TEMP:  33; 6HR MAX TEMP:  38;                                

LYNDONVILLE*   CLOUDY    32  28  83 N3          N/A                   
6HR MIN TEMP:  31; 6HR MAX TEMP:  36;                                

MIDDLEBURY*    FAIR      32  30  92 CALM      30.00F                  
6HR MIN TEMP:  32; 6HR MAX TEMP:  40;                                

RUTLAND*       CLOUDY    33  30  88 SE6       30.01S WCI  28          
6HR MIN TEMP:  33; 6HR MAX TEMP:  39;                                

SPRINGFIELD    CLOUDY    33  32  96 CALM      30.02S                  
6HR MIN TEMP:  33; 6HR MAX TEMP:  39;                                

HIGHGATE*      FAIR      32  29  89 CALM      30.03S                  
6HR MIN TEMP:  32; 6HR MAX TEMP:  38;                                

NEWPORT*       FAIR      29  28  96 CALM      30.01S                  
6HR MIN TEMP:  27; 6HR MAX TEMP:  36;                                

BENNINGTON     CLOUDY    35  33  92 CALM      30.01S                  
6HR MIN TEMP:  35; 6HR MAX TEMP:  38;                                

LAKE EDEN*       N/A     25 N/A N/A CALM        N/A                   

_____LAKE CHAMPLAIN_____

  
CITY           SKY/WX    TMP DP  RH WIND       PRES   REMARKS

$$

NYZ007-026>031-035-052-083-087-200100-
_____NORTHERN NEW YORK_____

  
CITY           SKY/WX    TMP DP  RH WIND       PRES   REMARKS
PLATTSBURGH    FAIR      33  28  81 N6        30.03R WCI  28          
6HR MIN TEMP:  32; 6HR MAX TEMP:  42;                                

SARANAC LAKE   FAIR      26  25  96 CALM      29.95S                  
6HR MIN TEMP:  24; 6HR MAX TEMP:  34;                                

MASSENA        CLOUDY    33  28  81 NE3       30.05R                  
6HR MIN TEMP:  32; 6HR MAX TEMP:  38;                                

OGDENSBURG*    MOCLDY    33  29  83 NE5       30.03R WCI  29          
6HR MIN TEMP:  31; 6HR MAX TEMP:  41;                                

POTSDAM*       CLOUDY    30  27  86 CALM      30.02R                  
WATERTOWN      FAIR      34  28  79 CALM      30.01S                  
6HR MIN TEMP:  33; 6HR MAX TEMP:  41;                                

FT DRUM        CLOUDY    35  32  90 CALM      30.00R                  
6HR MIN TEMP:  35; 6HR MAX TEMP:  40;                                

ALBANY         DRIZZLE   38  29  70 S7        30.05S                  
6HR MIN TEMP:  37; 6HR MAX TEMP:  40; 6HR PCP: TRACE;                

GLENS FALLS    CLOUDY    35  34  96 CALM      30.02F                  
6HR MIN TEMP:  34; 6HR MAX TEMP:  38;                                


$$
NHZ002-005-011-200100-
_____NEW HAMPSHIRE_____

  
CITY           SKY/WX    TMP DP  RH WIND       PRES   REMARKS
LEBANON        CLOUDY    33  29  85 CALM      30.01R                  
6HR MIN TEMP:  33; 6HR MAX TEMP:  40;                                

KEENE          MIX PCPN  34  32  93 CALM      30.03S FOG              
6HR MIN TEMP:  34; 6HR MAX TEMP:  39; 6HR PCP: TRACE;                

MT WASHINGTON  FOG       16  16 100 W22         N/A  VSB 1/16WCI  -2  
6HR MIN TEMP:  13; 6HR MAX TEMP:  19; 6HR PCP: TRACE;                

PLYMOUTH       FAIR      31  29  92 CALM      30.02S                  
6HR MIN TEMP:  31; 6HR MAX TEMP:  35;                                

WHITEFIELD     CLOUDY    32  29  88 CALM      30.00R                  
6HR MIN TEMP:  30; 6HR MAX TEMP:  38;                                


$$

_____REGIONAL QUEBEC LOCATIONS_____

  
CITY           SKY/WX    TMP DP  RH WIND       PRES   REMARKS
MONTREAL       CLOUDY    30  27  86 NW2       30.05R                  
QUEBEC CITY    FLURRIES  25  23  93 SW8       30.04S WCI  16          
SHERBROOKE     CLEAR     27  25  93 E2        30.01S                  

_____REGIONAL ONTARIO LOCATIONS_____

  
CITY           SKY/WX    TMP DP  RH WIND       PRES   REMARKS
OTTAWA         FLURRIES  27  23  86 N9        30.04R WCI  17          

______KEY______
VSB  - VISIBILITY IN MILES
WCI  - WIND CHILL INDEX
HX   - HEAT INDEX
$$
NNNN